Location: Cuzcurrita-R�o Tir�n
(42.5415°N, 2.9642°W)
Time: 18:14:08
(UTC+00:00)

MetOp-A - Pass Details

Date: 27 February 2020
Orbit: 819 x 821 km, 98.5° (Epoch: 01 April)

Event Time Altitude Azimuth Distance (km) Brightness Sun altitude
Exits shadow 20:28:10 75° 355° (N) 853 4.1 -28.2°
Drops below altitude 10° 20:33:05 10° 347° (NNW) 2,427 6.9 -29.0°
Sets 20:35:26 0° 347° (NNW) 3,364 7.7 -29.4°
